Location: Kergonan
(48.2337°N, 4.5518°W)
Time: 16:54:57
(UTC+00:00)

Cosmos 44 Rocket - Pass Details

Date: 18 January 2020
Orbit: 660 x 730 km, 65.1° (Epoch: 21 February)

Event Time Altitude Azimuth Distance (km) Brightness Sun altitude
Exits shadow 05:24:23 57° 15° (NNE) 787 3.5 -25.8°
Maximum altitude 05:24:56 61° 48° (NE) 754 3.5 -25.7°
Drops below altitude 10° 05:29:38 10° 130° (SE) 2,092 6.5 -24.9°
Sets 05:31:58 0° 133° (SE) 3,011 7.3 -24.5°
